Home > Time Zones > World Clock > Weather > Spain > Ibiza > Past weeks

Flag for Spain Weather past 2 weeks in Ibiza, Ibiza, Spain

Now
59 °F

Passing clouds.


Feels Like: 60 °F
Forecast: 55 / 68 °F
Wind: 3 mph from North

Location: Ibiza / Es Codola


UV Index: 5 (Moderate)

Visibility: N/A


Pressure: 30.12 "Hg

Humidity: 94%

Dew point: 57 °F

Location of IbizaLocation

Historic Weather in Ibiza

°F

Ibiza temperature yesterday

Maximum temperature yesterday: 70 °F (at 2:00 PM)
Minimum temperature yesterday: 54 °F (at 4:30 AM)
Average temperature yesterday: 63 °F

Past Weeks' High & Low Weather Summary

 TemperatureHumidityPressure
High77 °F (Apr 12, 12:30 PM)100% (Apr 7, 12:00 AM)30.24 "Hg (Apr 7, 12:00 AM)
Low52 °F (Apr 6, 7:00 AM)33% (Apr 4, 11:30 PM)29.47 "Hg (Apr 3, 7:30 AM)
Average62 °F73%29.98 "Hg
* Reported Apr 2 2:00 AM — Apr 17 2:00 AM, Ibiza, Weather by CustomWeather, © 2014

Note: Actual official high and low records may vary slightly from our data, if they occured in-between our weather recording intervals... More about our weather records

Advertising

Historic Weather Conditions — Data for Previous 24 hours

 ConditionsComfort  
Time TempWeatherWind HumidityBarometerVisibility
2:00 AM
Apr 17
59 °FPassing clouds.3 mph88%30.12 "HgN/A
1:30 AM59 °FClear.5 mph88%30.12 "Hg10 mi
1:00 AM57 °FClear.3 mph82%30.09 "Hg10 mi
12:30 AM57 °FClear.2 mph77%30.09 "Hg10 mi
12:00 AM59 °FClear.2 mph72%30.09 "Hg10 mi
11:30 PM
Apr 16
59 °FClear.1 mph72%30.09 "Hg10 mi
11:00 PM61 °FClear.2 mph72%30.09 "Hg10 mi
10:30 PM61 °FClear.3 mph77%30.09 "Hg10 mi
10:00 PM61 °FClear.3 mph83%30.09 "Hg10 mi
9:30 PM63 °FSunny.No wind88%30.09 "Hg10 mi
9:00 PM63 °FSunny.2 mph88%30.07 "Hg10 mi
8:30 PM63 °FSunny.3 mph88%30.07 "Hg10 mi
8:00 PM64 °FSunny.6 mph83%30.04 "Hg10 mi
7:30 PM66 °FSunny.8 mph78%30.04 "Hg10 mi
7:00 PM68 °FSunny.7 mph69%30.04 "Hg10 mi
6:30 PM68 °FSunny.9 mph69%30.04 "Hg10 mi
6:00 PM68 °FSunny.9 mph73%30.04 "Hg10 mi
5:30 PM68 °FSunny.9 mph73%30.04 "Hg10 mi
5:00 PM68 °FSunny.12 mph73%30.04 "Hg10 mi
4:30 PM68 °FSunny.10 mph73%30.07 "Hg10 mi
4:00 PM70 °FSunny.10 mph69%30.07 "Hg10 mi
3:00 PM70 °FSunny.10 mph64%30.07 "Hg10 mi
2:30 PM70 °FSunny.10 mph69%30.07 "Hg10 mi
2:00 PM70 °FSunny.10 mph69%30.09 "Hg10 mi
1:30 PM68 °FSunny.12 mph73%30.09 "Hg10 mi
1:00 PM68 °FSunny.9 mph60%30.09 "Hg10 mi
12:30 PM68 °FSunny.9 mph73%30.09 "Hg10 mi
12:00 PM68 °FSunny.8 mph73%30.09 "Hg10 mi
11:30 AM66 °FSunny.9 mph78%30.09 "Hg10 mi
11:00 AM68 °FSunny.7 mph73%30.09 "Hg10 mi
10:30 AM68 °FSunny.3 mph56%30.07 "Hg10 mi
10:00 AM68 °FSunny.1 mph56%30.07 "Hg10 mi
9:30 AM66 °FSunny.1 mph60%30.07 "Hg10 mi
9:00 AM64 °FSunny.1 mph64%30.07 "Hg10 mi
8:30 AM59 °FSunny.No wind68%30.04 "Hg10 mi
8:00 AM57 °FClear.1 mph67%30.04 "Hg10 mi
7:30 AM54 °FClear.1 mph77%30.04 "Hg10 mi
7:00 AM55 °FClear.No wind72%30.04 "Hg10 mi
6:30 AM54 °FClear.No wind72%30.04 "Hg10 mi
6:00 AM55 °FClear.1 mph72%30.04 "Hg10 mi
5:30 AM55 °FClear.1 mph77%30.04 "Hg10 mi
5:00 AM55 °FClear.3 mph77%30.04 "Hg10 mi
4:30 AM54 °FClear.No wind88%30.04 "Hg10 mi
4:00 AM55 °FClear.1 mph88%30.04 "Hg10 mi
3:00 AM55 °FClear.1 mph88%30.04 "Hg10 mi
Weather by CustomWeather, © 2014

See weather overview